Weather History for Milton, FL

Change the Weather History Date:

Saturday, April 20, 2013

  Actual Average (KNSE) Record (KNSE)
Temperature  
Mean Temperature 56 °F -  
Max Temperature 69 °F 76 °F 88 °F (2006)
Min Temperature 43 °F 55 °F 43 °F (2013)
Degree Days  
Heating Degree Days 9    
Growing Degree Days 6 (Base 50)    
Moisture  
Dew Point 39 °F    
Average Humidity 58    
Maximum Humidity 90    
Minimum Humidity 31    
Precipitation  
Precipitation 0.00 in - - ()
Sea Level Pressure  
Sea Level Pressure 30.15 in    
Wind  
Wind Speed 8 mph (NNE)    
Max Wind Speed 15 mph    
Max Gust Speed 24 mph    
Visibility 10 miles    
Events      
Averages and records for this station are not official NWS values.
T = Trace of Precipitation, MM = Missing Value Source: NWS Daily Summary

Daily Weather History Graph

Daily Weather History Graph

Search for Another Location

Airport:

Trip Planner

Search our weather history database for the weather conditions in past years. The results will help you decide how hot, cold, wet, or windy it might be!

Date:

Astronomy

Apr. 20, 2013 Rise Set
Actual Time 6:14 AM CDT 7:19 PM CDT
Civil Twilight 5:49 AM CDT 7:44 PM CDT
Nautical Twilight 5:20 AM CDT 8:14 PM CDT
Astronomical Twilight 4:49 AM CDT 8:44 PM CDT
Moon 2:23 PM CDT (4/20) 2:41 AM CDT (4/20)
Length of Visible Light 13h 54m
Length of Day
13h 04m
Waxing Gibbous, 71% of the Moon is Illuminated
Apr 20
Waxing Gibbous
Apr 25
Full
May 2
Last Quarter
May 9
New
May 17
First Quarter

Hourly Weather History & Observations

Time (CDT) Temp. Windchill Dew Point Humidity Pressure Visibility Wind Dir Wind Speed Gust Speed Precip Events Conditions
12:56 AM 48.0 °F - 45.0 °F 89% 30.13 in 10.0 mi NW 4.6 mph - N/A   Clear
1:56 AM 46.9 °F - 44.1 °F 90% 30.12 in 10.0 mi NW 5.8 mph - N/A   Clear
2:56 AM 45.0 °F 41.8 °F 42.1 °F 90% 30.13 in 10.0 mi NNW 5.8 mph - N/A   Clear
3:56 AM 45.0 °F 39.7 °F 41.0 °F 86% 30.12 in 10.0 mi NNW 10.4 mph - N/A   Clear
4:56 AM 44.1 °F 38.6 °F 39.9 °F 85% 30.14 in 10.0 mi NNW 10.4 mph - N/A   Clear
5:56 AM 43.0 °F 39.5 °F 39.0 °F 86% 30.16 in 10.0 mi North 5.8 mph - N/A   Clear
6:56 AM 44.1 °F 39.5 °F 39.0 °F 82% 30.19 in 10.0 mi North 8.1 mph - N/A   Clear
7:56 AM 46.9 °F - 41.0 °F 80% 30.20 in 10.0 mi NNE 8.1 mph - N/A   Clear
8:56 AM 51.1 °F - 39.9 °F 66% 30.21 in 10.0 mi NE 12.7 mph - N/A   Clear
9:56 AM 57.0 °F - 37.9 °F 49% 30.22 in 10.0 mi NE 13.8 mph 20.7 mph N/A   Clear
10:56 AM 60.1 °F - 34.0 °F 38% 30.22 in 10.0 mi NE 15.0 mph 23.0 mph N/A   Clear
11:56 AM 63.0 °F - 34.0 °F 34% 30.19 in 10.0 mi NE 13.8 mph 24.2 mph N/A   Clear
12:56 PM 64.0 °F - 36.0 °F 35% 30.16 in 10.0 mi NNE 11.5 mph 18.4 mph N/A   Clear
1:56 PM 66.9 °F - 37.0 °F 33% 30.14 in 10.0 mi NE 11.5 mph - N/A   Clear
2:56 PM 68.0 °F - 36.0 °F 31% 30.12 in 10.0 mi North 11.5 mph 23.0 mph N/A   Clear
3:56 PM 69.1 °F - 37.0 °F 31% 30.10 in 10.0 mi NNE 12.7 mph 20.7 mph N/A   Clear
4:56 PM 69.1 °F - 37.0 °F 31% 30.09 in 10.0 mi NNE 11.5 mph 17.3 mph N/A   Clear
5:56 PM 66.9 °F - 37.0 °F 33% 30.09 in 10.0 mi NNE 10.4 mph - N/A   Clear
6:56 PM 63.0 °F - 39.0 °F 41% 30.11 in 10.0 mi NNE 5.8 mph - N/A   Clear
7:56 PM 60.1 °F - 39.0 °F 46% 30.14 in 10.0 mi NE 5.8 mph - N/A   Clear
8:56 PM 57.9 °F - 39.9 °F 51% 30.15 in 10.0 mi NE 5.8 mph - N/A   Clear
9:56 PM 57.0 °F - 39.9 °F 53% 30.17 in 10.0 mi ENE 3.5 mph - N/A   Clear
10:56 PM 52.0 °F - 39.0 °F 61% 30.17 in 10.0 mi NE 3.5 mph - N/A   Clear
11:56 PM 48.9 °F - 41.0 °F 74% 30.17 in 10.0 mi Calm Calm - N/A   Clear